Regional Weather Roundup
Issued by NWS

Home | Current Version | Previous Version | Text Only | Print | Product List | Glossary On
Versions: 1 2 3 4 5 6 7 8 9 10 11 12 13 14 15 16 17 18 19 20 21 22 23 24 25 26 27 28 29 30 31 32 33 34 35 36 37 38 39 40 41 42 43 44 45 46 47 48 49 50
000
ASUS43 KMPX 301810
RWRMN
WEATHER ROUNDUP FOR MINNESOTA
NATIONAL WEATHER SERVICE TWIN CITIES/CHANHASSEN MN
100 PM CDT FRI SEP 30 2016


NOTE: "FAIR" INDICATES FEW OR NO CLOUDS BELOW 12,000 FEET WITH NO
SIGNIFICANT WEATHER AND/OR OBSTRUCTIONS TO VISIBILITY. N/A MEANS
CURRENT SKY AND/OR WEATHER CONDITIONS ARE NOT AVAILABLE.

MNZ060>063-068>070-301900-
   Twin Cities Metro

CITY           SKY/WX    TMP DP  RH WIND       PRES   REMARKS
TWIN CITIES    SUNNY     66  53  63 N10       30.32F
6HR MIN TEMP:  50; 6HR MAX TEMP:  66;

ST PAUL        SUNNY     67  53  61 N10       30.33F
CRYSTAL        SUNNY     64  51  62 N7        30.33F
BLAINE         SUNNY     64  55  72 N7        30.34F
LAKEVILLE      SUNNY     66  54  63 NE7       30.31F
EDEN PRAIRIE   SUNNY     66  54  65 N5        30.31F
6HR MIN TEMP:  50; 6HR MAX TEMP:  66;

LAKEVILLE      SUNNY     66  54  63 NE7       30.31F
SOUTH ST PAUL  SUNNY     67  53  59 N9        30.31F
LAKE ELMO      FAIR      66  55  68 N8        30.33F
$$
MNZ001>005-007-008-013>017-022>024-027-028-301900-
   Northwest Minnesota

CITY           SKY/WX    TMP DP  RH WIND       PRES   REMARKS
BEMIDJI        CLOUDY    55  51  88 SE7       30.37F
HALLOCK        MOSUNNY   64  54  68 SE14      30.28F
ROSEAU         SUNNY     63  54  72 S10       30.33F HAZE
WARROAD        MOSUNNY   63  54  72 S10       30.35S
THIEF RVR FALL SUNNY     61  52  72 SE12      30.32F
CROOKSTON      MOSUNNY   64  52  63 S14       30.30F
FOSSTON        SUNNY     63  52  67 SE9       30.33F
DETROIT LAKES  SUNNY     57  52  82 SE9       30.33F
MOORHEAD       SUNNY     64  52  63 SE14      30.30F
PARK RAPIDS    PTSUNNY   58  50  75 SE5       30.36F
MAHNOMEN       FAIR      62  52  68 SE8       30.31F
$$
MNZ006-009>011-018-025>026-301900-
   North Central Minnesota

CITY           SKY/WX    TMP DP  RH WIND       PRES   REMARKS
BAUDETTE       CLOUDY    50  47  89 SE8       30.39S
FLAG ISLAND    PTSUNNY   57  52  82 S10       30.35S
INTL FALLS     CLOUDY    51  50  96 SE8       30.41F
6HR MIN TEMP:  44; 6HR MAX TEMP:  52;

WASKISH        CLOUDY    54  52  94 SE6       30.38F
BIG FORK       CLOUDY    55  52  88 S3        30.40F
LONGVILLE      CLOUDY    54  52  94 CALM      30.39F
GRAND RAPIDS   MOSUNNY   57  50  77 VRB5      30.41F
ORR            CLOUDY    54  48  82 CALM      30.39F
COOK           SUNNY     61  50  67 E3        30.41F
WALKER         CLOUDY    54  51  90 E3        30.38F
$$
MNZ012-019>021-037-301900-
   Northeast Minnesota

CITY           SKY/WX    TMP DP  RH WIND       PRES   REMARKS
DULUTH         MOSUNNY   57  51  80 SE12      30.41F
6HR MIN TEMP:  51; 6HR MAX TEMP:  57;

ELY            SUNNY     63  46  55 SE3       30.41F
HIBBING        SUNNY     58  50  75 CALM      30.40F
EVELETH        SUNNY     60  49  65 SE6       30.41F
DULUTH HARBOR  CLOUDY    55  52  88 NE14      30.42F
TWO HARBORS    CLOUDY    61  54  77 E7        30.40F
SILVER BAY     CLOUDY    57  54  88 E8        30.40F
GRAND MARAIS     N/A     59  54  83 E12       30.42F
G MARAIS ARPRT SUNNY     64  50  59 SE5       30.43F
$$
MNZ029>031-032-039>041-046>048-054>057-064-301900-
   West Central Minnesota

CITY           SKY/WX    TMP DP  RH WIND       PRES   REMARKS
FERGUS FALLS   MOSUNNY   64  54  68 SE9       30.33F
MORRIS         SUNNY     63  54  72 SE9       30.31F
ALEXANDRIA     PTSUNNY   56  53  90 SE9       30.36F
ELBOW LAKE     FAIR      62  53  71 SE8       30.32F
WADENA         CLOUDY    55  52  88 E8        30.35F
GLENWOOD       MOSUNNY   61  54  77 E8        30.35F
APPLETON       SUNNY     64  54  68 SE8       30.31F
BENSON         SUNNY     66  52  59 SE7       30.32F
ORTONVILLE     SUNNY     66  54  63 SE3       30.29F
MADISON        CLOUDY    70  54  56 SE8       30.30F
WILLMAR        FAIR      66  55  68 E5        30.34F
$$
MNZ033>034-036-042>043-049>051-058-059-301900-
   Central Minnesota

CITY           SKY/WX    TMP DP  RH WIND       PRES   REMARKS
ST CLOUD       SUNNY     61  53  75 VRB5      30.35F
6HR MIN TEMP:  50; 6HR MAX TEMP:  61;

SAUK CENTRE    MOCLDY    58  53  83 SE7       30.36F
PAYNESVILLE    PTSUNNY   58  56  95 E5        30.36F
AITKIN         SUNNY     63  48  59 E5        30.37F
PINE RIVER     PTSUNNY   55  52  88 SE3       30.41F
BRAINERD       SUNNY     59  51  75 VRB5      30.38F
STAPLES        PTSUNNY   54  50  87 SE6       30.37F
LONG PRAIRIE   FAIR      55  52  88 NE6       30.36F FOG
LITTLE FALLS   CLOUDY    55  50  82 CALM      30.37F
LITCHFIELD     SUNNY     63  55  77 NE5       30.34F
BUFFALO        SUNNY     61  53  74 NE5       30.36F
MAPLE LAKE     SUNNY     62  56  81 CALM      30.36F
HUTCHINSON     MOSUNNY   64  55  73 NE5       30.34F
$$
MNZ037-044-045-052-053-301900-
   East Central Minnesota

CITY           SKY/WX    TMP DP  RH WIND       PRES   REMARKS
PRINCETON        N/A     64  54  68 N5        30.36F
MORA           SUNNY     61  52  72 NE5       30.38F
CAMBRIDGE      SUNNY     64  52  63 N6        30.34F
MOOSE LAKE     SUNNY     63  50  63 NE7       30.36F
HINCKLEY       FAIR      64  52  63 N6        30.36F
CLOQUET        MOSUNNY   55  48  76 E8        30.40F
MCGREGOR       SUNNY     61  52  72 E3        30.39F
$$
MNZ071>073-080-081-089-090-097-098-301900-
   Southwest Minnesota

CITY           SKY/WX    TMP DP  RH WIND       PRES   REMARKS
MONTEVIDEO     SUNNY     66  54  63 S8        30.34F
GRANITE FALLS  SUNNY     66  56  69 E7        30.33F
CANBY          CLOUDY    70  51  51 SE12      30.31F
MARSHALL       SUNNY     67  54  63 E9        30.31F
REDWOOD FALLS  SUNNY     67  52  58 CALM      30.31F
OLIVIA         SUNNY     64  54  68 E5        30.32F
PIPESTONE      SUNNY     70  45  40 S8        30.29F
WINDOM         SUNNY     68  46  45 NE7       30.30F
WORTHINGTON    SUNNY     67  49  52 E8        30.30F
JACKSON        SUNNY     70  43  37 E7G16     30.30F
TRACY          SUNNY     68  54  61 E6        30.31F
SLAYTON        SUNNY     68  46  45 E9        30.31F
$$
MNZ065>067-074>077-082>085-091>093-301900-
   South Central Minnesota

CITY           SKY/WX    TMP DP  RH WIND       PRES   REMARKS
MANKATO        SUNNY     67  52  58 NE13      30.30F
NEW ULM        SUNNY     66  52  59 NE7       30.30F
ST JAMES       SUNNY     70  46  43 NE13      30.31F
FAIRMONT       SUNNY     69  49  48 NE7       30.29F
GLENCOE        SUNNY     60  60 100 NE5       30.33F
FARIBAULT      SUNNY     70  52  52 NE8       30.30F
OWATONNA       MOSUNNY   70  52  52 NE10      30.29F
WASECA         SUNNY     66  50  55 NE12      30.31F
ALBERT LEA     MOSUNNY   68  52  56 NE7       30.28
$$
MNZ078>079-086>088-094>096-301900-
   Southeast Minnesota

CITY           SKY/WX    TMP DP  RH WIND       PRES   REMARKS
ROCHESTER      SUNNY     68  53  58 NE12      30.29F
6HR MIN TEMP:  48; 6HR MAX TEMP:  68; 6HR PCP: TRACE;

RED WING       SUNNY     72  48  43 NE8       30.28F
STANTON        SUNNY     69  50  50 NE9G16    30.30F
DODGE CENTER   SUNNY     70  50  49 NE10G16   30.29F
WINONA         SUNNY     70  54  56 N3        30.27F
AUSTIN         MOSUNNY   70  54  56 NE9       30.27F
PRESTON        PTSUNNY   65  52  60 E10G16    30.28F HAZE
$$
ABBREVIATIONS USED IN REMARKS
   TC - TEMPERATURES IN CELSIUS
  WCI - WIND CHILL INDEX
   HX - HEAT INDEX
  VSB - VISIBILITY
$$



USA.gov is the U.S. government's official web portal to all federal, state and local government web resources and services.